When you browse on this site, cookies collect data to enhance your experience and personalize the content and advertising you see.
Visit our Privacy Policy to learn more. By continuing to use the site, you agree to this use of cookies and data.
  • en Suisse
  • Liste des pays
  • À 7 jours
  • Température de l'eau
  • Carte météo
  • Widgets météo
  • user-avatar
    Se connecter

    Météo par heure à Martorell

    Ce jour, 29 Janvier, Mercredi

    Heure Température Précipitation Vent Pression Humidité
    00:00 +10°C° 0 mm 2 m/s 753 mmHg 76%
    01:00 +9°C° 0 mm 2 m/s 753 mmHg 77%
    02:00 +10°C° 0 mm 1 m/s 753 mmHg 77%
    03:00 +10°C° 0 mm 1 m/s 753 mmHg 77%
    04:00 +10°C° 0 mm 1 m/s 753 mmHg 77%
    05:00 +9°C° 0 mm 1 m/s 753 mmHg 77%
    06:00 +9°C° 0 mm 1 m/s 754 mmHg 77%
    07:00 +10°C° 0 mm 1 m/s 754 mmHg 75%
    08:00 +11°C° 0 mm 1 m/s 754 mmHg 72%
    09:00 +11°C° 0 mm 1 m/s 755 mmHg 70%
    10:00 +12°C° 0 mm 1 m/s 755 mmHg 68%
    11:00 +13°C° 0 mm 1 m/s 755 mmHg 66%
    12:00 +14°C° 0 mm 1 m/s 755 mmHg 64%
    13:00 +14°C° 0 mm 1 m/s 755 mmHg 63%
    14:00 +15°C° 0 mm 1 m/s 754 mmHg 62%
    15:00 +15°C° 0 mm 2 m/s 754 mmHg 61%
    16:00 +14°C° 0 mm 1 m/s 754 mmHg 65%
    17:00 +13°C° 0 mm 1 m/s 754 mmHg 70%
    18:00 +12°C° 0 mm 1 m/s 755 mmHg 74%
    19:00 +12°C° 0 mm 1 m/s 755 mmHg 76%
    20:00 +11°C° 0 mm 0 m/s 755 mmHg 78%
    21:00 +10°C° 0 mm 0 m/s 755 mmHg 79%
    22:00 +11°C° 0 mm 1 m/s 755 mmHg 79%
    23:00 +11°C° 0 mm 1 m/s 755 mmHg 79%

    Demain, 30 Janvier, Jeudi

    Heure Température Précipitation Vent Pression Humidité
    00:00 +11°C° 0 mm 1 m/s 755 mmHg 79%
    01:00 +11°C° 0 mm 1 m/s 755 mmHg 79%
    02:00 +11°C° 0 mm 1 m/s 754 mmHg 79%
    03:00 +10°C° 0 mm 2 m/s 754 mmHg 79%
    04:00 +9°C° 0 mm 2 m/s 754 mmHg 79%
    05:00 +9°C° 0 mm 2 m/s 753 mmHg 79%
    06:00 +9°C° 0 mm 2 m/s 753 mmHg 78%
    07:00 +10°C° 0 mm 2 m/s 753 mmHg 76%
    08:00 +12°C° 0 mm 2 m/s 754 mmHg 73%
    09:00 +11°C° 0 mm 3 m/s 754 mmHg 71%
    10:00 +12°C° 0 mm 3 m/s 754 mmHg 69%
    11:00 +13°C° 0 mm 3 m/s 754 mmHg 67%
    12:00 +14°C° 0 mm 3 m/s 754 mmHg 65%
    13:00 +16°C° 0 mm 3 m/s 753 mmHg 65%
    14:00 +16°C° 0 mm 3 m/s 753 mmHg 65%
    15:00 +16°C° 0 mm 3 m/s 752 mmHg 66%
    16:00 +14°C° 0 mm 3 m/s 753 mmHg 70%
    17:00 +14°C° 0 mm 2 m/s 753 mmHg 73%
    18:00 +13°C° 0 mm 2 m/s 753 mmHg 77%
    19:00 +13°C° 0 mm 2 m/s 753 mmHg 78%
    20:00 +13°C° 0 mm 2 m/s 754 mmHg 79%
    21:00 +12°C° 0 mm 2 m/s 754 mmHg 80%
    22:00 +12°C° 0 mm 2 m/s 754 mmHg 80%
    23:00 +12°C° 0 mm 2 m/s 754 mmHg 80%

    Après-demain, 31 Janvier, Vendredi

    Heure Température Précipitation Vent Pression Humidité
    00:00 +10°C° 0 mm 2 m/s 754 mmHg 80%
    01:00 +10°C° 0 mm 2 m/s 754 mmHg 79%
    02:00 +10°C° 0 mm 2 m/s 754 mmHg 78%
    03:00 +10°C° 0 mm 2 m/s 754 mmHg 77%
    04:00 +10°C° 0 mm 2 m/s 754 mmHg 77%
    05:00 +10°C° 0 mm 2 m/s 754 mmHg 78%
    06:00 +10°C° 0 mm 2 m/s 754 mmHg 78%
    07:00 +12°C° 0 mm 2 m/s 754 mmHg 75%
    08:00 +13°C° 0 mm 2 m/s 754 mmHg 73%
    09:00 +14°C° 0 mm 1 m/s 755 mmHg 70%
    10:00 +15°C° 0 mm 1 m/s 755 mmHg 65%
    11:00 +18°C° 0 mm 1 m/s 755 mmHg 61%
    12:00 +17°C° 0 mm 0 m/s 754 mmHg 56%
    13:00 +19°C° 0 mm 1 m/s 754 mmHg 56%
    14:00 +19°C° 0 mm 1 m/s 754 mmHg 56%
    15:00 +20°C° 0 mm 1 m/s 753 mmHg 55%
    16:00 +18°C° 0 mm 1 m/s 753 mmHg 61%
    17:00 +16°C° 0 mm 1 m/s 754 mmHg 66%
    18:00 +15°C° 0 mm 1 m/s 754 mmHg 71%
    19:00 +14°C° 0 mm 1 m/s 754 mmHg 73%
    20:00 +14°C° 0 mm 1 m/s 754 mmHg 76%
    21:00 +14°C° 0 mm 2 m/s 754 mmHg 78%
    22:00 +13°C° 0 mm 2 m/s 754 mmHg 79%
    23:00 +13°C° 0 mm 2 m/s 754 mmHg 79%

    1 Février, Samedi

    Heure Température Précipitation Vent Pression Humidité
    00:00 +13°C° 0 mm 2 m/s 753 mmHg 80%
    01:00 +13°C° 0 mm 2 m/s 753 mmHg 81%
    02:00 +12°C° 0 mm 2 m/s 753 mmHg 82%
    03:00 +12°C° 0 mm 2 m/s 753 mmHg 83%
    04:00 +12°C° 0 mm 2 m/s 753 mmHg 83%
    05:00 +13°C° 0 mm 2 m/s 753 mmHg 82%
    06:00 +13°C° 0 mm 2 m/s 753 mmHg 82%
    07:00 +13°C° 0 mm 2 m/s 754 mmHg 78%
    08:00 +14°C° 0 mm 2 m/s 754 mmHg 75%
    09:00 +15°C° 0 mm 2 m/s 755 mmHg 72%
    10:00 +16°C° 0 mm 2 m/s 755 mmHg 66%
    11:00 +18°C° 0 mm 2 m/s 755 mmHg 59%
    12:00 +20°C° 0 mm 1 m/s 755 mmHg 53%
    13:00 +20°C° 0 mm 1 m/s 755 mmHg 53%
    14:00 +20°C° 0 mm 1 m/s 756 mmHg 54%
    15:00 +21°C° 0 mm 1 m/s 756 mmHg 54%
    16:00 +19°C° 0 mm 1 m/s 756 mmHg 59%
    17:00 +18°C° 0 mm 1 m/s 756 mmHg 64%
    18:00 +16°C° 0 mm 1 m/s 757 mmHg 69%
    19:00 +16°C° 0 mm 1 m/s 757 mmHg 71%
    20:00 +15°C° 0 mm 1 m/s 758 mmHg 72%
    21:00 +15°C° 0 mm 1 m/s 758 mmHg 74%
    22:00 +15°C° 0 mm 1 m/s 758 mmHg 75%
    23:00 +14°C° 0 mm 1 m/s 758 mmHg 76%

    2 Février, Dimanche

    Heure Température Précipitation Vent Pression Humidité
    00:00 +14°C° 0 mm 2 m/s 758 mmHg 77%
    01:00 +14°C° 0 mm 2 m/s 758 mmHg 78%
    02:00 +14°C° 0 mm 1 m/s 758 mmHg 79%
    03:00 +13°C° 0 mm 1 m/s 758 mmHg 79%
    04:00 +13°C° 0 mm 2 m/s 758 mmHg 80%
    05:00 +13°C° 0 mm 2 m/s 758 mmHg 80%
    06:00 +13°C° 0 mm 2 m/s 758 mmHg 80%
    07:00 +13°C° 0 mm 2 m/s 758 mmHg 77%
    08:00 +14°C° 0 mm 2 m/s 759 mmHg 74%
    09:00 +15°C° 0 mm 2 m/s 759 mmHg 71%
    10:00 +16°C° 0 mm 2 m/s 759 mmHg 67%
    11:00 +18°C° 0 mm 2 m/s 759 mmHg 62%
    12:00 +19°C° 0 mm 2 m/s 759 mmHg 58%
    13:00 +20°C° 0 mm 3 m/s 759 mmHg 58%
    14:00 +20°C° 0 mm 3 m/s 759 mmHg 58%
    15:00 +20°C° 0 mm 3 m/s 758 mmHg 58%
    16:00 +19°C° 0 mm 3 m/s 758 mmHg 62%
    17:00 +18°C° 0 mm 2 m/s 759 mmHg 67%
    18:00 +17°C° 0 mm 2 m/s 759 mmHg 72%
    19:00 +16°C° 0 mm 2 m/s 759 mmHg 73%
    20:00 +16°C° 0 mm 2 m/s 759 mmHg 73%
    21:00 +15°C° 0 mm 2 m/s 759 mmHg 74%
    22:00 +15°C° 0 mm 2 m/s 759 mmHg 75%
    23:00 +15°C° 0 mm 2 m/s 759 mmHg 75%

    3 Février, Lundi

    Heure Température Précipitation Vent Pression Humidité
    00:00 +15°C° 0 mm 2 m/s 759 mmHg 75%
    01:00 +15°C° 0 mm 2 m/s 758 mmHg 75%
    02:00 +14°C° 0 mm 2 m/s 758 mmHg 75%
    03:00 +14°C° 0 mm 2 m/s 758 mmHg 75%
    04:00 +14°C° 0 mm 2 m/s 758 mmHg 73%
    05:00 +14°C° 0 mm 2 m/s 758 mmHg 71%
    06:00 +14°C° 0 mm 2 m/s 757 mmHg 69%
    07:00 +15°C° 0 mm 2 m/s 758 mmHg 66%
    08:00 +16°C° 0 mm 2 m/s 758 mmHg 62%
    09:00 +17°C° 0 mm 2 m/s 758 mmHg 58%
    10:00 +18°C° 0 mm 2 m/s 758 mmHg 54%
    11:00 +20°C° 0 mm 2 m/s 758 mmHg 50%
    12:00 +23°C° 0 mm 2 m/s 757 mmHg 47%
    13:00 +23°C° 0 mm 2 m/s 757 mmHg 47%
    14:00 +23°C° 0 mm 2 m/s 757 mmHg 48%
    15:00 +23°C° 0 mm 2 m/s 756 mmHg 48%
    16:00 +21°C° 0 mm 2 m/s 756 mmHg 54%
    17:00 +19°C° 0 mm 2 m/s 756 mmHg 60%
    18:00 +18°C° 0 mm 2 m/s 756 mmHg 66%
    19:00 +17°C° 0 mm 2 m/s 756 mmHg 67%
    20:00 +17°C° 0 mm 2 m/s 757 mmHg 69%
    21:00 +16°C° 0 mm 2 m/s 757 mmHg 70%
    22:00 +16°C° 0 mm 2 m/s 757 mmHg 70%
    23:00 +15°C° 0 mm 2 m/s 757 mmHg 70%
    Voir plus